Tracking 31027 objects as of 19-Jul-2025
HD Live streaming from Space Station
objects crossing your sky now

START 1 DEB

Track START 1 DEB now!
10-day predictions


NORAD ID: 27752
Int'l Code: 1993-014G
Perigee: 675.3 km
Apogee: 931.8 km
Inclination: 75.8 °
Period: 100.8 minutes
Semi major axis: 7174 km
RCS: 0.017 m2 (small)
Launch date: March 25, 1993
Source: Commonwealth of Independent States (former USSR) (CIS)
Launch site: PLESETSK MISSILE AND SPACE COMPLEX (PKMTR)

Note: This is SATELLITE DEBRIS
Your satellite tracking list
IRIDIUM 106
Track 1 satellite(s)




NASA's NSSDC Master Catalog

Two Line Element Set (TLE):
1 27752U 93014G   25199.47539392  .00000414  00000-0  14345-3 0  9997
2 27752  75.7603 103.5038 0178739  92.3321 269.8314 14.28605819211234
Source of the keplerian elements: AFSPC